Погода в Вологде

Погода в Вологде : погода сейчас, прогноз погоды и архив. Всё, что Вы хотите узнать о погоде в Вологде!

Хотите узнать прогноз погоды в Вологде? Тогда Вам сюда: Погода в Вологде

Поиск расширенной информации на нашем сайте:

Другие новости

Новости СМИ2

Главная страница сайта

Новости сайта

03.07.2017

Напоминаем, что на нашем специализированном сайте Метеоцентр.Азия вы можете получить высокодетализированные автоматические прогнозы погоды по пунктам России, СНГ и мира в авиационном формате (включающие направление и скорость ветра, видимость, явления погоды, количество и форму облачности, нижнюю и верхнюю границу облачности).


Погода в Вологде - сегодня

Время (UTC), дата Ветер
(°,м/с) 
Видим.   Явления Облачность Т
(°С)
Тd
(°С)
f(%) Тe
(°С)
Pmin
(гПа)
dP
(гПа)
Po
(мм)
O2
(г/м3)
Тmin Tmax R s Состояние
почвы
15 13.01.18 280 (З) 20000 м  снежные кристаллы  10/10 600 м 
[Sc]
-5.7 -7.1 90 -8  1037.6  -0.3  765  316    -5.4  0.0     
18 13.01.18 290 (З) 10 км  слаб. снег  10/10 300 м 
[Sc]
-5.3 -6.7 90 -7  1038  0.5  766  315           
21 13.01.18 290 (З) 10 км  слаб. снег  10/10 300 м 
[Sc]
-4.9 -6.2 91 -6  1038.4  0.4  766  315           
00 14.01.18 310 (СЗ) 10 км  слаб. снег  10/10 270 м 
[Sc]
-4.3 -5.2 93 -7  1038.5  0.1  766  314           
03 14.01.18 310 (СЗ) 20000 м  снежные кристаллы  10/10 330 м 
[Sc]
-3.8 -5 91 -6  1038.8  0.3  766  314  -5.7    0.3  равномерный
сухой снег
100% 
06 14.01.18 330 (СЗ) 20000 м  {снег}  10/10 300 м 
[Sc]
-3.8 -5 91 -5  1039.1  0.3  767  314           
09 14.01.18 320 (СЗ) 20000 м    10/10 360 м 
[Sc]
-3.8 -5.3 89 -7  1039.9  0.8  767  314           
12 14.01.18 330 (СЗ) 20000 м    10/10 400 м 
[Sc]
-3.7 -5.9 85 -6  1040.2  0.3  767  314           
15 14.01.18 330 (СЗ) 20000 м  снежные кристаллы  10/10 840 м 
[Sc]
-4.1 -5.7 89 -5  1040.2  767  315    -3.6  0.0     
18 14.01.18 320 (СЗ) 10 км  слаб. снег  10/10 720 м 
[Sc]
-4.5 -5.8 91 -6  1040.2  767  315           
21 14.01.18 320 (СЗ) 10 км  слаб. снег  10/10 700 м 
[Sc]
-5.1 -6.1 93 -6  1040.3  0.1  767  316           
00 15.01.18 340 (С) 10 км  слаб. снег  10/10 300 м 
[Sc]
-5.3 -6 95 -7  1040.1  -0.3  767  316           
03 15.01.18 310 (СЗ) 10 км  слаб. снег  10/10 300 м 
[Sc]
-5.8 -6.5 95 -5  1039.4  -0.7  767  316  -5.9    0.2  равномерный
сухой снег
100% 
06 15.01.18 030 (СВ) 20000 м  {снег}  10/10 300 м 
[Sc]
-5.9 -6.6 95 -6  1039.1  -0.3  766  316           
09 15.01.18 тихо ()   2000 м  дымка  10/10 240 м 
[St]
-5.5 -6.2 95 -6  1038.8  -0.3  766  316           
12 15.01.18 260 (З) 20000 м    10/10 240 м 
[St]
-6 -7.1 92 -6  1038.1  -0.7  766  316           
15 15.01.18 тихо ()   20000 м    10/10 240 м 
[St]
-5.8 -6.5 95 -6  1036.7  -1.3  765  316    -5.4  0.0     
18 15.01.18 150 (ЮВ) 20000 м  снежные кристаллы  10/10 300 м 
[Sc]
-4.9 -5.9 93 -4  1035.3  -1.4  764  314           
21 15.01.18 190 (Ю) 20000 м  снежные кристаллы  10/10 360 м 
[Sc]
-4 -4.9 93 -4  1034.5  -0.7  763  313           
00 16.01.18 190 (Ю) 20000 м  снежные кристаллы  10/10 360 м 
[Sc]
-3.5 -4.6 92 -6  1033.5  -0.9  762  312           
03 16.01.18 180 (Ю) 20000 м  снежные кристаллы  10/10 480 м 
[Sc]
-3.9 -5.8 87 -5  1032.1  -1.4  761  312  -5.8    0.0  равномерный
сухой снег
100% 
06 16.01.18 180 (Ю) 20000 м  снежные кристаллы  10/10 420 м 
[Sc]
-3.9 -5.8 87 -7  1030.9  -1.2  761  312           
09 16.01.18 190 (Ю) 10 км  слаб. снег  10/10 300 м 
[Sc]
-4.5 -6.8 84 -8  1030.6  -0.4  760  312           
12 16.01.18 170 (Ю) 20000 м  снежные кристаллы  10/10 420 м 
[Sc]
-5.1 -8 80 -7  1029.7  -0.9  760  313           
15 16.01.18 170 (Ю) 20000 м  {снег}  10/10 400 м 
[Sc]
-5.9 -8.5 82 -8  1028.8  -0.9  759  313    -3.9  0.0     
Время (UTC), дата Ветер
(°,м/с) 
Видим.   Явления Облачность Т
(°С)
Тd
(°С)
f(%) Тe
(°С)
Pmin
(гПа)
dP
(гПа)
Po
(мм)
O2
(г/м3)
Тmin Tmax R s Состояние
почвы

Для получения пояснительной информации подведите курсор к названию столбца.

ПОГОДА в Вологде - архив

Всё, что Вы хотите узнать о погоде в Вологде - удобно и подробно!

Выберите нужную дату (начиная с 1 января 2015* года) и нажмите кнопку "Найти".
Будут отображены архивные сводки погоды по пункту Вологда, начиная с указанной даты.


Отображать данные в формате CSV (для использования в таблицах Excel)


Внимание! Наш архив погоды предназначен исключительно для личного некоммерческого использования в познавательных целях. Если Вам необходимы официальные справки о состоянии погоды (для производственных, юридических, коммерческих и т.п. целей), обращайтесь в органы Росгидромета.

*Примечание: данная дата относится к архиву по метеостанциям СССР (Россия, СНГ, Балтия).
Архив по метеостанциям Зарубежной Европы и Азии (кроме Китая) хранится 10 дней, по другим регионам земного шара (Китай, Африка, Америка, Австралия, Океания) - 1 день.

Вологда - район местоположения метеостанции


Название, широта, долгота, высота метеостанции:
Вологда (город) 59.3°ш. 39.9°д. 130 м над ур. моря [Российская Федерация]

Дополнительная информация

В oтличие oт бoльшинства пoгoдных сайтoв мы публикуем пoдрoбную метеoинфoрмацию в детальнoм прoфессиoнальнoм фoрмате.

Характеристики температуры и влажнoсти вoздуха измеряются на высoте 2 м в тени вдали oт зданий и деревьев.
Скoрoсть ветра измеряется на высoте 10 м (на урoвне рoста челoвека скoрoсть ветра ниже в 1.5-2 раза). Если метеoстанция нахoдится в гoрoде или в лесу, тo скoрoсть ветра занижена на 2-4 м/с пo сравнению с oткрытым местoм. Скoрoсть ветра над акватoриями крупных рек и oзёр, а также на вершинах хoлмoв на 2-5 м/с выше, чем в oбычных услoвиях.
Атмoсфернoе давление в разных тoчках местнoсти мoжет значительнo oтличаться oт давления на метеoстанции, в зависимoсти oт услoвий рельефа (при пoдъёме на 10 м давление пoнижается примернo на 1 мм рт.ст.).